Regional Weather Roundup
Issued by NWS

Home | Current Version | Previous Version | Graphics & Text | Print | Product List | Glossary Off
Versions: 1 2 3 4 5 6 7 8 9 10 11 12 13 14 15 16 17 18 19 20 21 22 23 24 25 26 27 28 29 30 31 32 33 34 35 36 37 38 39 40 41 42 43 44 45 46 47 48 49 50

000
ASUS43 KDMX 220607
RWRIA

WEATHER ROUNDUP FOR IOWA
NATIONAL WEATHER SERVICE DES MOINES IA
100 AM CDT TUE JUL 22 2014

NOTE: "FAIR" INDICATES FEW OR NO CLOUDS BELOW 12,000 FEET WITH NO
SIGNIFICANT WEATHER AND/OR OBSTRUCTIONS TO VISIBILITY.

* - THESE STATIONS ARE NOT NWS STATIONS...THUS NOT UNDER NWS
QUALITY CONTROL.  THEY ALSO DO NOT REPORT WEATHER SUCH
AS PRECIPITATION OR FOG.

IAZ001>003-012>014-020>022-031>034-043>046-220700-
   NORTHWEST IOWA

CITY           SKY/WX    TMP DP  RH WIND       PRES   REMARKS
CARROLL *      CLEAR     81  75  83 S13       29.88S HX  86
CHEROKEE *     PTCLDY    79  78  96 S6        29.84S HX  83
DENISON *      CLEAR     81  77  89 S8        29.87R HX  88
LE MARS *      CLEAR     77  77 100 S6        29.83S
ORANGE CITY *  CLEAR     79  73  83 S5        29.85R HX  82
SHELDON *      CLEAR     77  77 100 S5        29.83S FOG
SIOUX CITY     PTCLDY    81  76  84 S6        29.83R HX  87
6HR MIN TEMP:  80; 6HR MAX TEMP:  92;

SPENCER        PTCLDY    79  76  90 S7        29.85R HX  83
6HR MIN TEMP:  79; 6HR MAX TEMP:  85;

STORM LAKE *   CLEAR     79  79 100 S9        29.88R HX  83
$$

IAZ055>058-069>071-079>083-090>094-220700-
   SOUTHWEST IOWA

CITY           SKY/WX    TMP DP  RH WIND       PRES   REMARKS
ATLANTIC *     CLEAR     81  73  78 S10       29.90S HX  85
AUDUBON *      CLEAR     82  75  78 S9        29.91S HX  89
CLARINDA *     CLEAR     79  57  47 S6        29.94S HX  80
COUNCIL BLFS *   N/A     84  77  79 S14       29.88S HX  94
CRESTON *      CLEAR     79  75  89 S14       29.95S HX  82
HARLAN  *      CLEAR     81  75  83 S7        29.93R HX  86
LAMONI         PTCLDY    78  75  90 S10       29.97R HX  81
6HR MIN TEMP:  78; 6HR MAX TEMP:  88;

RED OAK *      CLOUDY    79  75  89 S8        29.91S HX  82
SHENANDOAH *   CLEAR     79  75  89 SE3       29.92R HX  82
$$

IAZ047>049-059>061-072>074-084-220700-
   CENTRAL IOWA

CITY           SKY/WX    TMP DP  RH WIND       PRES   REMARKS
AMES           PTCLDY    79  75  87 S9        29.91S HX  83
6HR MIN TEMP:  78; 6HR MAX TEMP:  87;

ANKENY *       CLEAR     82  75  78 S10G18    29.92S HX  89
CHARITON *     CLEAR     79  75  89 S10       29.96S HX  82
DES MOINES     PTCLDY    82  75  79 S13G21    29.92R HX  89
6HR MIN TEMP:  82; 6HR MAX TEMP:  90;

GRINNELL*      CLEAR     75  70  83 S9        29.96S
KNOXVILLE *    CLEAR     81  73  78 S14       29.94S HX  85
MARSHALLTOWN   CLEAR     78  74  87 S14       29.92F HX  81
6HR MIN TEMP:  78; 6HR MAX TEMP:  87;

PELLA *        CLEAR     78  73  85 S9        29.96S HX  80
PERRY *          N/A     81  75  83 S10       29.90R HX  86
$$

IAZ004>006-015-016-023>025-035-036-220700-
   NORTH CENTRAL IOWA

CITY           SKY/WX    TMP DP  RH WIND       PRES   REMARKS
ALGONA *       CLEAR     81  77  89 S15G23    29.86S HX  88
CLARION *      CLEAR     81  77  89 S16       29.88S HX  88
ESTHERVILLE    PTCLDY    79  76  90 S13       29.84R HX  83
6HR MIN TEMP:  78; 6HR MAX TEMP:  83;

FORT DODGE *   CLOUDY    81  75  83 S15G23    29.88S HX  86
MASON CITY     CLOUDY    79  76  90 S12       29.90S HX  83
6HR MIN TEMP:  79; 6HR MAX TEMP:  84;

FOREST CITY *  CLEAR     81  75  83 S12       29.88S HX  86
IOWA FALLS *     N/A     79  73  83 S14       29.91F HX  82
$$

IAZ007>011-017>019-026>030-037>042-050>054-066-220700-
   NORTHEAST IOWA

CITY           SKY/WX    TMP DP  RH WIND       PRES   REMARKS
CEDAR RAPIDS   CLEAR     75  68  78 S12       29.97F
6HR MIN TEMP:  75; 6HR MAX TEMP:  82;

CHARLES CITY * MOCLDY    79  73  83 S15G25    29.92S HX  82
DECORAH *      MOCLDY    75  70  83 S13G22    29.93F
DUBUQUE        CLEAR     73  69  87 S12       30.00F
6HR MIN TEMP:  72; 6HR MAX TEMP:  80;

MONTICELLO *   CLEAR     73  70  88 SE9       29.99S
OELWEIN *      PTCLDY    75  70  83 S15       29.96S
WATERLOO       PTCLDY    78  71  79 S15       29.92S HX  80
6HR MIN TEMP:  78; 6HR MAX TEMP:  85;

$$

IAZ064-065-067-068-078-220700-
   EAST CENTRAL IOWA

CITY           SKY/WX    TMP DP  RH WIND       PRES   REMARKS
DAVENPORT      CLEAR     75  68  78 S12       30.02S
6HR MIN TEMP:  75; 6HR MAX TEMP:  82;

IOWA CITY      CLEAR     74  70  87 SE8       30.00S
6HR MIN TEMP:  74; 6HR MAX TEMP:  83;

MT. PLEASANT * CLEAR     75  66  75 S9        30.01S
MUSCATINE *    CLEAR     75  70  83 S6        30.00F
QUAD CITIES    CLEAR     75  68  78 S7        30.02R
6HR MIN TEMP:  75; 6HR MAX TEMP:  83;

$$

IAZ062-063-075>077-085>089-095>099-220700-
   SOUTHEAST IOWA

CITY           SKY/WX    TMP DP  RH WIND       PRES   REMARKS
BURLINGTON     CLEAR     76  69  79 S14       30.03R
6HR MIN TEMP:  76; 6HR MAX TEMP:  83;

FAIRFIELD *    CLEAR     77  68  73 S10G16    30.00S
FORT MADISON * CLEAR     75  70  83 S12       30.03S
KEOKUK *       CLEAR     75  68  78 S8        30.02S
OSKALOOSA *      N/A     75  70  85 S9        29.98S
CENTERVILLE *  CLEAR     75  72  88 S7        30.00S
OTTUMWA        CLEAR     76  69  79 S9        29.97S
6HR MIN TEMP:  76; 6HR MAX TEMP:  85;

WASHINGTON *   CLEAR     75  70  83 S8        30.00S
$$

ABBREVIATIONS USED IN REMARKS
   TC - TEMPERATURES IN CELSIUS
  WCI - WIND CHILL INDEX
   HX - HEAT INDEX
  VSB - VISIBILITY
$$



USA.gov is the U.S. government's official web portal to all federal, state and local government web resources and services.